Location: Fernhill
(41.0167°S, 175.6333°E)
Time: 19:41:09
(UTC+00:00)

Meteor 2-6 Rocket - Pass Details

Date: 19 February 2026
Orbit: 804 x 913 km, 81.3° (Epoch: 11 March)

Event Time Altitude Azimuth Distance (km) Brightness Sun altitude
Exits shadow 10:51:46 47° 255° (WSW) 1,164 5.0 -33.0°
Drops below altitude 10° 10:57:29 10° 182° (S) 2,609 7.4 -33.5°
Sets 11:00:07 0° 175° (S) 3,568 8.2 -33.7°
